Overview Statistics Trail Chart Weather Telemetry Raw packets
 

This is the latest recevied weather packets stored in our database for station/object W7BTL. If no packets are shown the sender has not sent any weather packets the latest 10 day(s).

<< 13 14 15 16 17 18 19 >>
Time Temp. Humidity Pressure Rain* Wind** Luminosity Snow
1788565079 30° C 40% 1011.8 hPa 0 mm - 379 W/m² -
1788564775 30° C 39% 1011.6 hPa 0 mm - 401 W/m² -
1788564472 30° C 38% 1011.8 hPa 0 mm - 423 W/m² -
1788564168 30° C 37% 1011.7 hPa 0 mm - 428 W/m² -
1788563883 30.56° C 39% 1011.8 hPa 0 mm - 463 W/m² -
1788563558 30.56° C 40% 1011.7 hPa 0 mm - 487 W/m² -
1788563259 30.56° C 37% 1011.8 hPa 0 mm - 509 W/m² -
1788562953 30.56° C 39% 1011.9 hPa 0 mm - 529 W/m² -
1788562652 31.11° C 40% 1011.8 hPa 0 mm - 550 W/m² -
1788562346 31.11° C 39% 1011.6 hPa 0 mm - 570 W/m² -
1788562045 31.11° C 37% 1012 hPa 0 mm - 592 W/m² -
1788561741 30.56° C 37% 1011.8 hPa 0 mm - 612 W/m² -
1788561440 30.56° C 41% 1011.8 hPa 0 mm - 634 W/m² -
1788561135 30.56° C 38% 1011.8 hPa 0 mm - 656 W/m² -
1788560830 30° C 41% 1011.8 hPa 0 mm - 671 W/m² -
1788560527 30.56° C 41% 1012 hPa 0 mm - 694 W/m² -
1788560225 31.11° C 40% 1011.9 hPa 0 mm - 712 W/m² -
1788559921 30.56° C 39% 1012 hPa 0 mm - 729 W/m² -
1788559615 30° C 41% 1012.1 hPa 0 mm - 747 W/m² -
1788559311 30.56° C 40% 1012.1 hPa 0 mm - 761 W/m² -
1788559010 31.11° C 37% 1012.1 hPa 0 mm - 781 W/m² -
1788558706 30.56° C 41% 1011.9 hPa 0 mm - 797 W/m² -
1788558401 31.11° C 38% 1012.1 hPa 0 mm - 809 W/m² -
1788558097 31.11° C 38% 1012.1 hPa 0 mm - 824 W/m² -
1788557795 31.11° C 39% 1012.1 hPa 0 mm - 840 W/m² -

* Rain latest hour (hover to see other rain measurements)
** Current wind speed in m/s (hover to see current wind gust speed)